Regional Weather Roundup
Issued by NWS

Home | Current Version | Previous Version | Text Only | Print | Product List | Glossary On
Versions: 1 2 3 4 5 6 7 8 9 10 11 12 13 14 15 16 17 18 19 20 21 22 23 24 25 26 27 28 29 30 31 32 33 34 35 36 37 38 39 40 41 42 43 44 45 46 47 48 49 50
811
ASUS44 KJAN 261210
RWRMS

MISSISSIPPI HOURLY WEATHER ROUNDUP
NATIONAL WEATHER SERVICE JACKSON MS
700 AM CDT TUE AUG 26 2014

NOTE: "FAIR: INDICATES FEW OR NO CLOUDS BELOW 12,000 FEET WITH NO
SIGNIFICANT WEATHER AND/OR OBSTRUCTIONS TO VISIBILITY.

MSZ001>002-007>008-010>013-018>021-025>028-034>036-261300-
NORTHWEST MISSISSIPPI

CITY           SKY/WX    TMP DP  RH WIND       PRES   REMARKS
CLARKSDALE     FAIR      75  73  94 CALM      30.07R
CLEVELAND      PTSUNNY   75  73  95 E6        30.05R
GREENWOOD      PTCLDY    75  69  81 CALM      30.05R
6HR MIN TEMP:  74; 6HR MAX TEMP:  79;

GREENVILLE     CLOUDY    76  73  91 E3        30.05R
6HR MIN TEMP:  74; 6HR MAX TEMP:  77;

GRENADA        FAIR      72  68  88 SE5       30.07R
OLIVE BRANCH   PTCLDY    72  72 100 CALM      30.09R
OXFORD         FAIR      72  68  88 CALM      30.10R
TUNICA         SUNNY     72  72 100 CALM      30.08R FOG
$$

MSZ003>006-009-014>017-022>024-029>033-037>039-261300-
NORTHEAST MISSISSIPPI

CITY           SKY/WX    TMP DP  RH WIND       PRES   REMARKS
BELMONT        PTSUNNY   73  65  76 SE5       30.10R
COLUMBUS AFB   CLEAR     68  67  96 SE3       30.08R
6HR MIN TEMP:  67; 6HR MAX TEMP:  74;

CORINTH        CLOUDY    73  72  94 CALM      30.09R FOG
GOLDN TRIANGLE PTCLDY    72  63  73 E9        30.08R
STARKVILLE     FAIR      64  64 100 CALM      30.08R
TUPELO         CLOUDY    76  68  76 S3        30.08R
6HR MIN TEMP:  74; 6HR MAX TEMP:  80;

$$

MSZ040-058-261300-
CENTRAL MISSISSIPPI

CITY           SKY/WX    TMP DP  RH WIND       PRES   REMARKS
JACKSON INTL   PTCLDY    73  67  81 NE6       30.04R
6HR MIN TEMP:  73; 6HR MAX TEMP:  78;

JACKSON HAWKNS CLEAR     74  67  78 E5        30.04R
6HR MIN TEMP:  73; 6HR MAX TEMP:  78;

MERIDIAN KEY   CLEAR     70  66  87 NE3       30.06R
6HR MIN TEMP:  67; 6HR MAX TEMP:  75; 6HR PCP:  0.01;

MERIDIAN NAS   PTCLDY    68  65  90 CALM      30.06R
6HR MIN TEMP:  67; 6HR MAX TEMP:  75;

RAYMOND        FAIR      72  66  83 CALM      30.04R HAZE
VICKSBURG      MOCLDY    74  71  91 CALM      30.03R
6HR MIN TEMP:  73; 6HR MAX TEMP:  76;

$$

MSZ059>079-261300-
SOUTH MISSISSIPPI

CITY           SKY/WX    TMP DP  RH WIND       PRES   REMARKS
BROOKHAVEN     FAIR      72  70  94 N3        30.04R
COLUMBIA       FAIR      70  68  94 MISG      30.00R
HATTIESBURG    CLEAR     68  66  93 CALM      30.02R
6HR MIN TEMP:  67; 6HR MAX TEMP:  74;

MCCOMB         CLEAR     72  67  84 NE5       30.01R
6HR MIN TEMP:  72; 6HR MAX TEMP:  75;

NATCHEZ        CLOUDY    72  70  94 CALM      30.03R
6HR MIN TEMP:  72; 6HR MAX TEMP:  73;

PINE BELT      CLEAR     70  64  83 NE5       30.04R
6HR MIN TEMP:  68; 6HR MAX TEMP:  73;

$$

MSZ080>082-261300-
COASTAL MISSISSIPPI

CITY           SKY/WX    TMP DP  RH WIND       PRES   REMARKS
BAY ST LOUIS   CLEAR    N/A N/A N/A VRB5      29.98
BILOXI         CLEAR     74  66  77 NE9       29.97R
6HR MIN TEMP:  73; 6HR MAX TEMP:  79;

PASCAGOULA     CLEAR     71  66  84 NE5       29.98R
6HR MIN TEMP:  69; 6HR MAX TEMP:  75;

GULFPORT       CLEAR     75  66  73 NE9       29.97R
6HR MIN TEMP:  75; 6HR MAX TEMP:  78;

$$



USA.gov is the U.S. government's official web portal to all federal, state and local government web resources and services.